{"data":{"norad_id":59180,"intl_designator":"2024-045C","name":"STARLINK-31395","alt_names":[],"object_type":"PAYLOAD","status":"ACTIVE","operator":null,"country":"US","launch_date":"2024-03-10","launch_site_code":"AFETR","launch_vehicle":null,"mission":null,"orbit_class":"UNKNOWN","rcs_meters":null,"size_class":null,"mass_kg":null,"dimensions":null,"purposes":["comms"],"wikipedia_slug":null,"has_3d_model":false,"image_url":null,"decayed_at":null,"tle_current":{"epoch":"2026-05-25T01:01:14.247264Z","epoch_age_seconds":67551,"freshness":"FRESH","line1":"1 59180U 24045C   26145.04252601  .00006976  00000+0  26235-3 0  9994","line2":"2 59180  43.0036  21.7672 0001036 243.5511 116.5235 15.27637319124832","mean_motion":15.27637319,"eccentricity":0.0001036,"inclination_deg":43.0036,"raan_deg":21.7672,"arg_perigee_deg":243.5511,"mean_anomaly_deg":116.5235,"bstar":0.00026235,"rev_number":12483,"period_min":94.263211698876,"perigee_km":482.16666660103,"apogee_km":483.58826879873,"semimajor_km":6861.0144676999,"source":"CELESTRAK","updated_at":"2026-05-25T13:38:18.837992Z"}}}